Location: Namasale
(1.5000°N, 32.6167°E)
Time: 19:32:26
(UTC+00:00)

SR - Pass Details

Date: 12 April 2021
Orbit: 573 x 882 km, 66.7° (Epoch: 13 May)

Event Time Altitude Azimuth Distance (km) Brightness Sun altitude
Rises 18:41:47 0° 302° (WNW) 3,219 ? -41.9°
Reaches altitude 10° 18:46:26 10° 265° (W) 2,202 ? -43.0°
Enters shadow 18:46:27 10° 265° (W) 2,200 ? -43.0°
